Regional Weather Roundup
Issued by NWS

Home | Current Version | Previous Version | Text Only | Print | Product List | Glossary On
Versions: 1 2 3 4 5 6 7 8 9 10 11 12 13 14 15 16 17 18 19 20 21 22 23 24 25 26 27 28 29 30 31 32 33 34 35 36 37 38 39 40 41 42 43 44 45 46 47 48 49 50
000
ASCA42 TJSJ 271911
RWRPR
PUERTO RICO/U.S. VIRGIN ISLANDS HOURLY WEATHER ROUNDUP
NATIONAL WEATHER SERVICE SAN JUAN PR
300 PM AST WED AUG 27 2014

PRZ001-004-272000-
PUERTO RICO

CITY           SKY/WX    TMP DP  RH WIND       PRES   REMARKS
SAN JUAN LMM   MOSUNNY   88  77  70 NE24G30   29.99F HX 100
MAYAGUEZ       PTSUNNY   88  73  62 SW6       29.97F HX  96
AGUADILLA      MOSUNNY   88  75  66 E22G30    29.98F HAZE    HX  97
CEIBA          CLOUDY    88  79  74 E8        30.01F HX 102
$$

PRZ006-007-272000-
U.S. VIRGIN ISLANDS

CITY           SKY/WX    TMP DP  RH WIND       PRES   REMARKS
$$

HOURLY WEATHER ROUNDUP FOR THE NEWS MEDIA

CITY           SKY/WX    TMP DP  RH WIND       PRES   REMARKS
MIAMI          MOSUNNY   90  70  51 E14G20    29.93F HX  95
ORLANDO        PTSUNNY   91  69  48 NE10      29.96F HX  96
NEW YORK       MOSUNNY   84  65  52 S10       29.94F
NEWARK         MOSUNNY   92  61  35 W10G16    29.91F HX  92
CHICAGO        PTSUNNY   80  61  52 E9        30.13F
HARTFORD       SUNNY     83  63  50 SW16G22   29.92F
BOSTON         MOSUNNY   89  66  46 SW16G24   29.86F HX  91
DALLAS         PTSUNNY   90  65  43 E7        30.03F HX  92
PHILADELPHIA   MOSUNNY   88  64  44 W12       29.95F



USA.gov is the U.S. government's official web portal to all federal, state and local government web resources and services.